STARLINK-4724, 53702

Orbit data source: Space-Track

STARLINK-4724, 53702 is a payload satellite owned by SpaceX/Seattle (US) in LEO that was launched on Mon, 05 Sep 2022 UTC via an FALCON 9 launch vehicle from the Air Force Eastern Test Range (AFETR). Payload-class satellites include a variety of spacecraft equipped with specific instruments for various scientific and technological missions. These include communications satellites like Starlink; space stations such as the ISS; scientific satellites like the Hubble; Earth observation satellites from companies like Planet Labs, Umbra, and HawkEye 360; GPS; miniature CubeSats for education and research; and military/defense satellites.

Loading next visibility...
Identifier
53702, 2022-107C
Orbit
LEO
Country
Flag of USUS
Related business
Manufacturer
SpaceX/Seattle
Mission
Operational Commercial Communications
Bus & Motor
STARLINK, Unknown motor
Mass
305 kg wet, ~290 kg dry
Launch date (UTC)
2022-09-05 (4 years ago)
Launch vehicle
FALCON 9
Launch site
Air Force Eastern Test Range (AFETR)
Object type
Payload
Rocket body
Debris
Shape & HBR
Box + 1 Pan, 10.1 m
Radar Cross Section
13.562 m², Large (>1 m²)

Expand to show TLE details & history
Last TLE update: 3 days ago

TLE from 3 days ago
0 STARLINK-4724
1 53702U 22107C   26170.88355279  .00000442  00000-0  45911-4 0  9996
2 53702  53.1621 130.1453 0001278  85.3465 274.7672 15.08822500210529
Epoch: 2026-06-19T21:12Z
TLE epoch observation values (Epoch: 2026-06-19T21:12:18.961Z)
Latitude
-0.00003°
Longitude
-96.03986°
Altitude
540.615 km
Speed
7.593 km/s
True Right ascension
08h 40m 34s
True Declination
0° 00' 00"
Sunlit
Object was in daylight at epoch
Visualization orbit readout
Latitude
Unknown
Longitude
Unknown
Altitude
Unknown
Speed
Unknown
Apparent Right ascension
Unknown
Apparent Declination
Unknown
Sunlit
N/A
Visualization observer readout
Local Sidereal Time
21:25:01
Azimuth
Unknown
Elevation
Unknown
Doppler factor
Unknown
Orbital elements
Apogee altitude
540.935 km
Perigee altitude
539.167 km
Semi-major axis
6,918.188 km
Eccentricity
0.00013
Inclination
53.1621°
RAAN
130.1453°
Arg. of periapsis
85.3465°
True anomaly
274.75261°
Mean anomaly
274.7672°
Eccentric anomaly
274.7599°
Mean motion
3.77185 °/min
Orbital period
95.44 mins
BSTAR
0.000045911
Loading maneuver chart data...
Computing Atmospheric mass density...
Loading historical data...
Loading historical data...
Loading historical data...
Loading historical data...
Loading historical data...
Loading historical data...
Loading historical data...

Documentation

Showing up to 5 results
|